Location: Unspecified
(50.1700°N, 6.8600°E)
Time: 21:45:10
(UTC+00:00)

GRACE-FO 2 - Pass Details

Date: 24 January 2019
Orbit: 484 x 505 km, 89.0° (Epoch: 18 February)

Event Time Altitude Azimuth Distance (km) Brightness Sun altitude
Rises 05:10:20 0° 183° (S) 2,544 8.3 -20.1°
Reaches altitude 10° 05:12:25 10° 185° (S) 1,667 7.3 -19.8°
Maximum altitude 05:16:01 74° 271° (W) 511 4.4 -19.2°
Drops below altitude 10° 05:19:40 10° 357° (N) 1,679 7.2 -18.6°
Sets 05:21:46 0° 359° (N) 2,565 8.1 -18.3°
